Weather in Staryye Bobovichi

Russia / Bryansk Oblast     52°35′21″N   31°44′28″E
temp.,
°C
wind,
m/s
gust,
m/s
humid.,
%
clouds,
%
prec.,
mm/h
press.,
hPa
HPBL,
m
4 march, thu
thu400:00−1wsw49870 0.0 1019243
03:00−1wsw49860 0.0 1017262
06:00−3sw511910 0.0 1013273
09:00−1sw512931 0.0 1010378
12:00+2wsw499519 0.0 1008535
15:00+4w599429 0.0 1006704
18:00+2wnw51194100 0.1 1005548
21:00+1wnw4990100 0.1 1006519
5 march, fri
fri500:000wnw4992100 0.0 1007433
03:00−1nw3796100 0.1 1008244
06:00−2n2593100 0.0 1010185
09:00−2n2488100 0.0 1011273
12:00−1n2372100 0.0 1012550
15:000nnw3470100 0.0 1013941
18:00−1nnw2275100 0.0 101476
21:00−3nw227997 0.0 101636
6 march, sat
sat600:00−3nw498224 0.0 1017409
03:00−4nw497431 0.0 1018689
06:00−5nw59680 0.0 1019728
09:00−5nw69710 0.0 1021849
12:00−3nnw7106157 0.1 10221488
15:00−2nw695579 0.1 10231540
18:00−3nw486196 0.1 10231221
21:00−4w3106953 0.1 1024458
7 march, sun
sun700:00−4wsw410690 0.0 1022408
03:00−4sw6146610 0.0 1019563
06:00−3sw8166886 0.0 1016807
09:00−2wsw9176893 0.0 10121103
12:000wsw101762100 0.0 10091292
15:00+2w101764100 0.0 10081563
18:00+1w81680100 0.0 10071306
21:000w81586100 0.1 10071155
8 march, mon
mon800:00−1wnw51183100 1.2 1007798
03:00−2wnw5108997 1.6 1007896
06:00−4wnw5108537 0.0 1008845
09:00−5nw587258 0.1 1011950
12:00−3nw467192 0.1 1012951
15:00−2nw566396 0.2 10131214
18:00−3nw4577100 0.2 1013730
21:00−5nnw5776100 0.4 1015870